Location: �clusier
(49.9361°N, 2.7869°E)
Time: 08:08:48
(UTC+00:00)

COSMOS 2428 - Pass Details

Date: 16 June 2021
Orbit: 845 x 858 km, 70.9° (Epoch: 03 August)

Event Time Altitude Azimuth Distance (km) Brightness Sun altitude
Exits shadow 23:43:00 - 236° (SW) 2,941 5.2 -16.7°
Reaches altitude 10° 23:44:17 10° 241° (WSW) 2,489 4.9 -16.7°
Maximum altitude 23:49:39 40° 310° (NW) 1,250 3.9 -16.7°
Drops below altitude 10° 23:55:03 10° 20° (NNE) 2,504 6.3 -16.7°
Sets 23:57:41 0° 27° (NNE) 3,444 7.1 -16.7°
